[[{"header":{"parameterUnit":"m.s-1","parameterCategory":1,"la1":30.2991,"la2":30.254,"lo1":-89.0895,"lo2":-89.0444,"dy":0.0017,"dx":0.0017,"nx":28,"ny":28,"refTime":"2024-06-29T09:00:00:Z","depth":0,"parameterNumber":2,"parameterNumberName":"U-component_of_WINDS"},"data":[0,0,0,0,0,0,0,0,0,0,0,0,0,0,0,0,0,0,0,0,0,0,0,0,0,0,0,0,0,0,0,0,0,0,0,0,0,0,0,0,0,0,0,0,0,0,0,0,0,0,0,0,0,0,0,0,0,0,1.0859,1.086,0,1.0931,1.0932,1.0933,1.0944,1.0943,1.0943,1.0942,1.1014,1.1016,1.1019,0,0,0,0,0,0,0,0,0,0,0,0,0,1.0727,1.073,1.0859,1.086,1.0861,1.0931,1.0932,1.0933,1.0944,1.0943,1.0943,1.0942,1.1013,1.1016,1.1019,0,0,0,0,0,0,0,0,0,0,0,0,0,1.079,1.073,1.0859,1.0875,1.0877,1.0931,1.0932,1.0934,1.0944,1.0943,1.0942,1.0942,1.1012,1.1016,1.1019,1.1062,0,0,1.1031,1.1032,0,0,0,0,0,0,0,0,1.0787,1.0795,1.0872,1.0874,1.0877,1.0928,1.0912,1.0976,1.0945,1.0919,1.0942,1.0941,1.0986,1.0992,1.1007,1.1065,1.1068,1.1031,1.1033,1.1035,1.1036,0,0,0,0,0,0,0,1.0782,1.0792,1.0888,1.0873,1.0876,1.0877,1.0885,1.0924,1.0957,1.0921,1.0922,1.093,1.0987,1.1004,1.1009,1.1069,1.1031,1.1034,1.1037,1.1038,1.1162,1.1163,0,0,0,0,0,0,1.0776,1.0789,1.0885,1.089,1.0829,1.0881,1.0889,1.0912,1.0956,1.0962,1.0931,1.0931,1.0998,1.1005,1.1011,1.1062,1.1035,1.1038,1.1041,1.1161,1.1162,1.1163,0,0,0,0,0,0,1.0773,1.0784,1.0883,1.084,1.0852,1.0884,1.0909,1.0914,1.0931,1.0964,1.097,1.0943,1.0997,1.1006,1.1049,1.1065,1.104,1.1044,1.116,1.1161,1.1163,1.1164,0,0,0,0,0,0,1.0769,1.0783,1.0801,1.084,1.0854,1.092,1.0911,1.0916,1.0938,1.0938,1.0976,1.0982,1.0997,1.1043,1.1052,1.1069,1.1046,1.1158,1.1161,1.1162,1.1163,1.1166,1.1168,0,0,0,0,0,1.0764,1.0798,1.0801,1.0813,1.0877,1.0921,1.0929,1.0947,1.0939,1.0956,1.0977,1.098,1.1062,1.1047,1.1058,1.1076,1.1158,1.116,1.1162,1.1162,1.1165,1.1168,0,0,0,0,0,0,1.076,1.0804,1.0808,1.0856,1.0884,1.0922,1.0944,1.095,1.0981,1.0979,1.0999,1.1008,1.1049,1.1067,1.105,1.1118,1.1109,1.1113,1.1105,1.1108,1.1111,1.1105,1.105,0,0,0,0,0,1.0764,1.0797,1.0833,1.0872,1.0886,1.0913,1.0932,1.0943,1.0974,1.0986,1.101,1.1038,1.107,1.109,1.1121,1.1166,1.1173,1.1183,1.1186,1.1188,1.1191,1.1214,1.1218,1.1171,1.1171,1.1171,0,0,1.0774,1.0802,1.0821,1.0872,1.0895,1.0927,1.0923,1.0957,1.098,1.0991,1.1032,1.105,1.1083,1.1126,1.1146,1.1142,1.1206,1.1191,1.1192,1.1195,1.1216,1.1221,1.1225,1.1173,1.1172,1.1172,0,0,1.0808,1.0833,1.0867,1.089,1.0926,1.0943,1.0951,1.0988,1.1001,1.1043,1.105,1.1077,1.1132,1.1154,1.1173,1.1213,1.1216,1.1222,1.1235,1.1257,1.1261,1.1264,1.1276,1.1281,1.1226,1.1226,1.1226,0,1.0815,1.0864,1.0884,1.0917,1.0938,1.0949,1.0982,1.1004,1.1047,1.106,1.1056,1.1123,1.1146,1.1193,1.1203,1.1218,1.1226,1.1218,1.1259,1.1262,1.1266,1.1278,1.1282,1.1226,1.1226,1.1226,1.1226,0,1.087,1.0904,1.0927,1.0969,1.0992,1.1026,1.1048,1.107,1.1078,1.1095,1.1136,1.1164,1.12,1.1212,1.1221,1.126,1.1256,1.1255,1.1246,1.127,1.1282,1.1286,1.1227,1.1227,1.1227,1.1226,0,0,1.0903,1.0954,1.0962,1.098,1.102,1.1045,1.1078,1.1114,1.113,1.116,1.1186,1.1232,1.123,1.1251,1.1263,1.1282,1.1309,1.1278,1.1279,1.1281,1.1351,1.135,1.1355,1.1312,1.1313,1.1314,1.1347,0,1.094,1.1,1.1017,1.1067,1.1097,1.1107,1.1135,1.1161,1.1177,1.1204,1.1222,1.1253,1.125,1.1263,1.1282,1.1301,1.1323,1.1299,1.1335,1.1336,1.1325,1.1362,1.1362,1.1392,1.1352,1.1353,1.1353,0,1.0991,1.1021,1.1073,1.1107,1.112,1.1145,1.1178,1.1204,1.1233,1.1244,1.1266,1.1276,1.1308,1.1298,1.1342,1.1326,1.1342,1.1353,1.1355,1.1358,1.1345,1.1364,1.1403,1.1406,1.1361,1.136,1.136,0,1.1007,1.1061,1.1098,1.1114,1.1155,1.1171,1.1189,1.1217,1.1237,1.1265,1.1277,1.1309,1.1326,1.135,1.1366,1.1358,1.1408,1.14,1.1416,1.1416,1.1426,1.1425,1.1466,1.1438,1.1438,1.1438,1.1438,0,1.1045,1.1076,1.1106,1.1129,1.1164,1.1183,1.1216,1.1234,1.1258,1.1284,1.1295,1.1318,1.134,1.1365,1.1379,1.1412,1.142,1.1428,1.1431,1.1427,1.1425,1.1436,1.1434,1.1439,1.1439,1.1439,1.1439,0,1.1069,1.109,1.1132,1.1166,1.1176,1.1199,1.1228,1.125,1.1267,1.1299,1.1307,1.1333,1.1364,1.1383,1.1422,1.1431,1.1467,1.147,1.1457,1.1458,1.1473,1.1471,1.1522,1.1528,1.1498,1.1498,1.1498,0,1.1091,1.1115,1.1152,1.117,1.1188,1.1217,1.1237,1.1256,1.1276,1.131,1.1327,1.1358,1.1385,1.1433,1.1454,1.1484,1.1487,1.1502,1.1491,1.1485,1.1485,1.1483,1.1484,1.1504,1.1504,1.1504,1.1505,0,1.1127,1.1136,1.1165,1.1197,1.122,1.1246,1.1271,1.1285,1.1308,1.133,1.1362,1.1382,1.1421,1.1452,1.1483,1.15,1.1505,1.1508,1.1513,1.1508,1.1499,1.1502,1.1461,1.1507,1.1506,1.1506,1.1506,1.1506,1.115,1.1171,1.12,1.1231,1.1252,1.1275,1.1297,1.1316,1.1343,1.1377,1.1386,1.1419,1.1445,1.1488,1.1505,1.153,1.1528,1.1535,1.1537,1.1538,1.1538,1.1496,1.1536,1.1536,1.1536,1.1536,1.1536,0,1.1185,1.1204,1.1232,1.1267,1.1291,1.1295,1.1323,1.1342,1.1371,1.1396,1.1421,1.1457,1.1486,1.1509,1.1539,1.1554,1.1557,1.1561,1.156,1.1563,1.1539,1.1531,1.1558,1.1558,1.1558,1.1558,1.1558,1.1558,1.1206,1.1241,1.1254,1.1299,1.1317,1.135,1.1365,1.1386,1.1405,1.1445,1.1469,1.1484,1.1508,1.1539,1.1566,1.1572,1.1581,1.1584,1.159,1.1567,1.1565,1.1562,1.1555,1.1587,1.1587,1.1612,1.1612,1.1613]},{"header":{"parameterUnit":"m.s-1","parameterCategory":1,"la1":30.2991,"la2":30.254,"lo1":-89.0895,"lo2":-89.0444,"dy":0.0017,"dx":0.0017,"nx":28,"ny":28,"refTime":"2024-06-29T09:00:00:Z","depth":0,"parameterNumber":3,"parameterNumberName":"V-component_of_WINDS"},"data":[0,0,0,0,0,0,0,0,0,0,0,0,0,0,0,0,0,0,0,0,0,0,0,0,0,0,0,0,0,0,0,0,0,0,0,0,0,0,0,0,0,0,0,0,0,0,0,0,0,0,0,0,0,0,0,0,0,0,2.085,2.0851,0,2.0942,2.0943,2.0944,2.094,2.0938,2.0937,2.0936,2.1026,2.103,2.1034,0,0,0,0,0,0,0,0,0,0,0,0,0,2.0665,2.0669,2.085,2.0851,2.0852,2.0942,2.0943,2.0945,2.094,2.0938,2.0937,2.0935,2.1025,2.1029,2.1034,0,0,0,0,0,0,0,0,0,0,0,0,0,2.075,2.067,2.085,2.0861,2.0863,2.0942,2.0943,2.0945,2.094,2.0938,2.0936,2.0935,2.1024,2.1029,2.1034,2.1107,0,0,2.1051,2.1053,0,0,0,0,0,0,0,0,2.0745,2.0757,2.0858,2.086,2.0863,2.0928,2.0911,2.0999,2.0941,2.0911,2.0936,2.0934,2.0995,2.1003,2.1024,2.1111,2.1115,2.1052,2.1055,2.1057,2.1059,0,0,0,0,0,0,0,2.0739,2.0753,2.0886,2.086,2.0862,2.086,2.087,2.0928,2.0963,2.0913,2.0913,2.0924,2.0996,2.1019,2.1026,2.1117,2.1051,2.1056,2.106,2.1062,2.1266,2.1268,0,0,0,0,0,0,2.0732,2.0748,2.0884,2.0889,2.0798,2.0865,2.0876,2.0909,2.0962,2.0968,2.0926,2.0924,2.101,2.102,2.1029,2.1117,2.1057,2.1062,2.1065,2.1264,2.1266,2.1269,0,0,0,0,0,0,2.0728,2.0744,2.088,2.0819,2.0836,2.087,2.0907,2.0911,2.0935,2.0972,2.0977,2.0944,2.1009,2.1022,2.1088,2.112,2.1065,2.107,2.1261,2.1264,2.1267,2.1293,0,0,0,0,0,0,2.0722,2.0743,2.0772,2.0819,2.0839,2.0938,2.0909,2.0915,2.0945,2.0943,2.099,2.0995,2.1009,2.1079,2.1093,2.1126,2.1074,2.1258,2.1263,2.1266,2.1289,2.1296,2.1302,0,0,0,0,0,2.0716,2.0775,2.0773,2.079,2.0877,2.094,2.0951,2.0966,2.0947,2.0976,2.0999,2.0994,2.1114,2.1086,2.1101,2.1137,2.1256,2.1261,2.1266,2.1286,2.1295,2.1302,0,0,0,0,0,0,2.073,2.0781,2.078,2.0857,2.0894,2.0939,2.0976,2.0976,2.1018,2.1015,2.103,2.1041,2.1107,2.1128,2.1097,2.1209,2.1182,2.1191,2.1192,2.1201,2.1208,2.1201,2.1078,0,0,0,0,0,2.0742,2.079,2.0832,2.0896,2.0915,2.0942,2.097,2.0979,2.1018,2.1033,2.1061,2.1098,2.1144,2.1174,2.1218,2.1292,2.1301,2.1323,2.133,2.1335,2.1342,2.1381,2.1391,2.1284,2.1284,2.1284,0,0,2.0767,2.0801,2.0831,2.0899,2.0929,2.0977,2.0956,2.1008,2.1043,2.1041,2.1105,2.1127,2.1168,2.1238,2.127,2.1258,2.1373,2.1342,2.1346,2.1349,2.1387,2.1397,2.1406,2.1288,2.1287,2.1287,0,0,2.0837,2.0869,2.0924,2.0954,2.1,2.1018,2.1031,2.1076,2.1091,2.1156,2.1154,2.1195,2.1274,2.1304,2.1329,2.1408,2.1404,2.1422,2.1457,2.1494,2.1503,2.151,2.1537,2.1547,2.1429,2.1429,2.1429,0,2.0862,2.0936,2.0952,2.1005,2.1034,2.1035,2.1089,2.1118,2.1175,2.1194,2.118,2.1278,2.1307,2.1382,2.1401,2.1422,2.1436,2.1417,2.1501,2.1508,2.1515,2.1541,2.1551,2.143,2.143,2.143,2.143,0,2.0964,2.1015,2.1054,2.111,2.1144,2.1197,2.122,2.1251,2.1256,2.1275,2.1339,2.1373,2.1423,2.1442,2.1447,2.1518,2.1509,2.1497,2.1471,2.1527,2.1551,2.1561,2.1433,2.1432,2.1432,2.1431,0,0,2.1046,2.111,2.1124,2.1148,2.1198,2.1237,2.1289,2.134,2.1366,2.1405,2.1448,2.1514,2.1503,2.1532,2.154,2.1573,2.1631,2.1557,2.1558,2.1569,2.1709,2.1717,2.1728,2.1629,2.1631,2.1633,2.1705,0,2.1121,2.1216,2.123,2.1313,2.1359,2.1359,2.1404,2.1439,2.1457,2.1497,2.1517,2.1563,2.1546,2.1563,2.1596,2.1617,2.166,2.1612,2.1667,2.1669,2.1657,2.1741,2.175,2.1817,2.1715,2.1717,2.1718,0,2.1221,2.1263,2.135,2.1392,2.1412,2.1453,2.1499,2.1538,2.1576,2.1587,2.1618,2.1622,2.1674,2.1645,2.1716,2.1684,2.1707,2.172,2.1723,2.1729,2.1697,2.1747,2.1839,2.1848,2.1733,2.1732,2.1731,0,2.1271,2.1349,2.1411,2.1432,2.1483,2.1511,2.1533,2.1569,2.1598,2.1637,2.1655,2.17,2.1725,2.1758,2.1773,2.1751,2.1842,2.1816,2.1851,2.1851,2.187,2.1868,2.1965,2.1886,2.1886,2.1886,2.1886,0,2.1352,2.1405,2.1434,2.1472,2.153,2.1546,2.1603,2.1624,2.1655,2.1696,2.1698,2.1736,2.1754,2.1793,2.1805,2.1861,2.1872,2.1881,2.1883,2.188,2.1879,2.1895,2.1891,2.1889,2.1888,2.1887,2.1887,0,2.1417,2.1439,2.1506,2.1548,2.156,2.1601,2.1636,2.1672,2.1689,2.1741,2.1753,2.178,2.1827,2.1845,2.1902,2.191,2.1974,2.1973,2.1961,2.1962,2.1996,2.1992,2.2106,2.2121,2.2033,2.2033,2.2034,0,2.1467,2.1508,2.1555,2.1582,2.1606,2.165,2.1679,2.1696,2.1725,2.177,2.18,2.1847,2.1885,2.196,2.1983,2.2026,2.2025,2.2062,2.2032,2.2027,2.2024,2.2022,2.2025,2.2068,2.2069,2.2069,2.207,0,2.1554,2.1562,2.1605,2.165,2.1685,2.1722,2.1757,2.1779,2.18,2.1833,2.1882,2.1911,2.1969,2.2015,2.2059,2.2079,2.2078,2.2079,2.209,2.2087,2.2078,2.2082,2.1976,2.2077,2.2076,2.2075,2.2075,2.2075,2.1612,2.1648,2.1686,2.1732,2.1761,2.1793,2.1829,2.185,2.1891,2.194,2.1947,2.1998,2.2032,2.2092,2.2114,2.2153,2.2143,2.2158,2.2162,2.2165,2.2167,2.2072,2.2161,2.2161,2.2161,2.216,2.216,0,2.1697,2.1721,2.1764,2.1814,2.185,2.1846,2.1885,2.1915,2.196,2.1993,2.2031,2.2085,2.2129,2.2155,2.2199,2.2225,2.2225,2.2236,2.2233,2.2238,2.2174,2.216,2.2235,2.2235,2.2235,2.2235,2.2235,2.2235,2.1746,2.1805,2.1818,2.189,2.1914,2.1965,2.1987,2.2016,2.2042,2.2103,2.214,2.2158,2.2187,2.2233,2.2272,2.2279,2.2294,2.2305,2.2311,2.225,2.2243,2.2235,2.2222,2.2309,2.2309,2.2371,2.2372,2.2372]}]]